Aeroporto :
LOGIN :

Iscrizione | Disclaimer

   EN    FR    IT 

 










Sommario :    VFR   VFR Marginale   IFR   IFR Intensivo   IFR Molto Intensivo
Visibilità : 
Base nubi : 
>= 8 km
>= 3000ft
5 / 8 km
1000 / 3000 ft
1500m / 5 km
500 / 1000 ft
800 / 1500m
200 / 500 ft
< 800m
< 200 ft
Simboli :   Temporali  Nebbia  Neve Forte  Precipitazioni Forti  Vento > 20 kt
SIGMETs :   Varie  Temporali  Ghiacco  Turbolenza  Onda orograficha  Ceneri Vulcaniche







- Altitudine del aeroporto : 36 ft
- Codice IATA : LTQ
- Carte del aeroporto


LFAT - Le Touquet

ULTIMO METAR :
  • 230600Z AUTO 13007KT 4500 BR NSC 06/05 Q1034 NOSIG

METARs OBSOLETI :
  • 230530Z AUTO 13007KT 5000 BR NSC 06/06 Q1034
  • 230500Z AUTO 14004KT 110V170 4600 BR NSC 06/06 Q1034
  • 230430Z AUTO 14004KT 4500 BR NSC 07/06 Q1034
  • 230400Z AUTO 12006KT 4300 BR NSC 07/06 Q1034
  • 230330Z AUTO 13005KT 4000 BR NSC 07/07 Q1034

TAF TAF LFAT
Valido dal 23 a 06 ore il 23 a 15 ore UTC


230500Z 2306/2315 13005KT 8000 NSC
TEMPO 2306/2308 3000 BR
ATIS : +33 3 21 06 62 84
Nessun NOTAM noto per questo aeroporto.



MetMap, La meteo Aeronautica in un colpo d'occhio ! - Copyright ORBIFLY Dicembre 2007 - Disclaimer

ORBIFLY MET'MAP TEAM :

Programmazione e sviluppo : Alexandra Zaïnal
Concezione e sviluppo : Baudouin d'Aumeries
Co-Programmazione e sviluppo : Marc-Olivier Méhu
Supporto tecnico e logistico : Manuel Goepfert
Aiuto per la traduzione : Arnaldo La Scala

Contatto : metmap@orbifly.com




FONTI E CREDITI :

   NOAA